TAP1825 LPPT-LPLA

Flight info

Callsign TAP1825
Flight time 2h 14m
Altitude 36000
Route ZIFOG DCT GUNTI/M079F360 T25 LENSI DCT BAVAS H121 LM
Aircraft A320/M-SDE3FGHIRWY/LB1

Departure

Time 2026-04-22 13:29
Airport Lisbon Humberto Delgado Airport (LPPT)

Arrival

Time 2026-04-22 15:43
Airport Lajes Airport (LPLA)
Time Latitude Longitude Altitude Speed Heading
2026-04-22 12:52 38.76891 -9.13053 337 ft 0 kts 78°
2026-04-22 13:17 38.76891 -9.13058 333 ft 2 kts 78°
2026-04-22 13:17 38.76887 -9.13079 333 ft 2 kts 78°
2026-04-22 13:17 38.76884 -9.13100 334 ft 2 kts 78°
2026-04-22 13:18 38.76878 -9.13120 335 ft 2 kts 27°
2026-04-22 13:18 38.76870 -9.13124 333 ft 0 kts 352°
2026-04-22 13:21 38.76876 -9.13128 335 ft 3 kts 338°
2026-04-22 13:22 38.76901 -9.13140 337 ft 3 kts 340°
2026-04-22 13:22 38.76920 -9.13147 337 ft 3 kts 344°
2026-04-22 13:22 38.76944 -9.13155 338 ft 4 kts 347°
2026-04-22 13:22 38.76973 -9.13163 337 ft 5 kts 348°
2026-04-22 13:23 38.77013 -9.13174 338 ft 7 kts 347°
2026-04-22 13:23 38.77066 -9.13189 337 ft 9 kts 348°
2026-04-22 13:23 38.77140 -9.13208 338 ft 13 kts 348°
2026-04-22 13:23 38.77241 -9.13236 336 ft 17 kts 348°
2026-04-22 13:24 38.77368 -9.13264 338 ft 20 kts 349°
2026-04-22 13:24 38.77517 -9.13303 338 ft 23 kts 348°
2026-04-22 13:24 38.77682 -9.13325 337 ft 25 kts 354°
2026-04-22 13:24 38.77838 -9.13366 349 ft 21 kts 347°
2026-04-22 13:25 38.77966 -9.13401 357 ft 16 kts 348°
2026-04-22 13:25 38.78056 -9.13397 360 ft 11 kts 21°
2026-04-22 13:25 38.78123 -9.13367 361 ft 9 kts 20°
2026-04-22 13:25 38.78180 -9.13338 362 ft 11 kts 22°
2026-04-22 13:26 38.78263 -9.13295 361 ft 12 kts 22°
2026-04-22 13:26 38.78336 -9.13257 359 ft 10 kts 22°
2026-04-22 13:26 38.78397 -9.13225 359 ft 9 kts 18°
2026-04-22 13:26 38.78447 -9.13222 360 ft 6 kts 351°
2026-04-22 13:27 38.78475 -9.13231 361 ft 3 kts 344°
2026-04-22 13:27 38.78486 -9.13236 361 ft 2 kts 342°
2026-04-22 13:27 38.78530 -9.13273 361 ft 9 kts 310°
2026-04-22 13:27 38.78549 -9.13325 364 ft 9 kts 289°
2026-04-22 13:28 38.78543 -9.13374 363 ft 4 kts 221°
2026-04-22 13:28 38.78527 -9.13382 361 ft 1 kts 200°
2026-04-22 13:28 38.78516 -9.13387 361 ft 11 kts 200°
2026-04-22 13:28 38.78193 -9.13561 369 ft 87 kts 203°
2026-04-22 13:29 38.77437 -9.13968 365 ft 146 kts 204°
2026-04-22 13:29 38.76444 -9.14511 874 ft 156 kts 203°
2026-04-22 13:29 38.75420 -9.15033 1636 ft 160 kts 200°
2026-04-22 13:29 38.74345 -9.15578 2131 ft 175 kts 201°
2026-04-22 13:30 38.73159 -9.16217 2508 ft 197 kts 201°
2026-04-22 13:30 38.71813 -9.16941 2916 ft 222 kts 201°
2026-04-22 13:30 38.70306 -9.17750 3419 ft 247 kts 201°
2026-04-22 13:30 38.68680 -9.18623 4141 ft 259 kts 202°
2026-04-22 13:31 38.66989 -9.19565 5022 ft 264 kts 208°
2026-04-22 13:31 38.65599 -9.21112 5918 ft 269 kts 232°
2026-04-22 13:31 38.64823 -9.23254 6763 ft 275 kts 257°
2026-04-22 13:31 38.64802 -9.25751 7621 ft 280 kts 274°
2026-04-22 13:32 38.65016 -9.28232 8466 ft 282 kts 275°
2026-04-22 13:32 38.65239 -9.30731 9299 ft 284 kts 275°
2026-04-22 13:32 38.65464 -9.33254 10129 ft 287 kts 274°
2026-04-22 13:32 38.65693 -9.35853 10526 ft 305 kts 274°
2026-04-22 13:33 38.65932 -9.38645 10734 ft 328 kts 274°
2026-04-22 13:33 38.66184 -9.41630 11058 ft 344 kts 274°
2026-04-22 13:33 38.66443 -9.44708 11677 ft 350 kts 274°
2026-04-22 13:33 38.66705 -9.47820 12370 ft 353 kts 274°
2026-04-22 13:34 38.66970 -9.50962 13049 ft 357 kts 273°
2026-04-22 13:34 38.67238 -9.54132 13756 ft 360 kts 273°
2026-04-22 13:34 38.67504 -9.57328 14386 ft 363 kts 273°
2026-04-22 13:34 38.67772 -9.60549 15023 ft 365 kts 273°
2026-04-22 13:35 38.68042 -9.63783 15666 ft 366 kts 273°
2026-04-22 13:35 38.68314 -9.67028 16307 ft 368 kts 273°
2026-04-22 13:35 38.68585 -9.70287 16919 ft 369 kts 273°
2026-04-22 13:35 38.68854 -9.73562 17544 ft 371 kts 273°
2026-04-22 13:36 38.69124 -9.76849 18160 ft 373 kts 272°
2026-04-22 13:36 38.69395 -9.80161 18695 ft 374 kts 272°
2026-04-22 13:36 38.69667 -9.83487 19209 ft 376 kts 272°
2026-04-22 13:36 38.69936 -9.86822 19728 ft 377 kts 272°
2026-04-22 13:37 38.70202 -9.90168 20238 ft 379 kts 272°
2026-04-22 13:37 38.70467 -9.93534 20751 ft 381 kts 272°
2026-04-22 13:37 38.70735 -9.96915 21240 ft 382 kts 272°
2026-04-22 13:37 38.71006 -10.00305 21718 ft 384 kts 272°
2026-04-22 13:38 38.71284 -10.03762 22198 ft 386 kts 272°
2026-04-22 13:38 38.71830 -10.10630 23127 ft 390 kts 272°
2026-04-22 13:38 38.72101 -10.14090 23576 ft 391 kts 272°
2026-04-22 13:39 38.72374 -10.17569 23954 ft 393 kts 272°
2026-04-22 13:39 38.72648 -10.21066 24330 ft 395 kts 271°
2026-04-22 13:39 38.72920 -10.24572 24676 ft 397 kts 271°
2026-04-22 13:39 38.73194 -10.28102 25018 ft 399 kts 271°
2026-04-22 13:40 38.73467 -10.31656 25357 ft 401 kts 271°
2026-04-22 13:40 38.73738 -10.35215 25696 ft 403 kts 271°
2026-04-22 13:40 38.74010 -10.38798 26034 ft 405 kts 271°
2026-04-22 13:40 38.74283 -10.42394 26367 ft 407 kts 271°
2026-04-22 13:41 38.74559 -10.46012 26704 ft 409 kts 271°
2026-04-22 13:41 38.74834 -10.49644 27027 ft 411 kts 271°
2026-04-22 13:41 38.75109 -10.53291 27343 ft 413 kts 271°
2026-04-22 13:41 38.75383 -10.56959 27655 ft 414 kts 271°
2026-04-22 13:42 38.75658 -10.60645 27976 ft 416 kts 271°
2026-04-22 13:42 38.75932 -10.64344 28271 ft 418 kts 271°
2026-04-22 13:42 38.76206 -10.68060 28557 ft 420 kts 271°
2026-04-22 13:42 38.76484 -10.71841 28840 ft 422 kts 271°
2026-04-22 13:43 38.76761 -10.75587 29115 ft 423 kts 271°
2026-04-22 13:43 38.77037 -10.79350 29394 ft 425 kts 270°
2026-04-22 13:43 38.77310 -10.83129 29667 ft 427 kts 270°
2026-04-22 13:43 38.77582 -10.86910 30025 ft 426 kts 270°
2026-04-22 13:44 38.77856 -10.90684 30372 ft 425 kts 270°
2026-04-22 13:44 38.78128 -10.94446 30721 ft 424 kts 270°
2026-04-22 13:44 38.78399 -10.98203 31032 ft 423 kts 270°
2026-04-22 13:44 38.78669 -11.01958 31341 ft 422 kts 270°
2026-04-22 13:45 38.78936 -11.05700 31662 ft 421 kts 270°
2026-04-22 13:45 38.79199 -11.09440 31986 ft 421 kts 270°
2026-04-22 13:45 38.79459 -11.13167 32309 ft 420 kts 270°
2026-04-22 13:45 38.79716 -11.16891 32630 ft 419 kts 270°
2026-04-22 13:46 38.79972 -11.20605 32945 ft 418 kts 270°
2026-04-22 13:46 38.80225 -11.24312 33265 ft 417 kts 270°
2026-04-22 13:46 38.80480 -11.28057 33596 ft 416 kts 270°
2026-04-22 13:46 38.80730 -11.31752 33928 ft 416 kts 270°
2026-04-22 13:47 38.80980 -11.35445 34214 ft 415 kts 270°
2026-04-22 13:47 38.81226 -11.39126 34478 ft 415 kts 270°
2026-04-22 13:47 38.81473 -11.42809 34737 ft 414 kts 270°
2026-04-22 13:47 38.81720 -11.46488 34986 ft 414 kts 270°
2026-04-22 13:48 38.81965 -11.50155 35225 ft 413 kts 270°
2026-04-22 13:48 38.82211 -11.53831 35457 ft 413 kts 270°
2026-04-22 13:48 38.82455 -11.57494 35688 ft 413 kts 270°
2026-04-22 13:48 38.82698 -11.61165 35895 ft 413 kts 270°
2026-04-22 13:49 38.82937 -11.64830 35996 ft 413 kts 270°
2026-04-22 13:49 38.83174 -11.68511 36011 ft 414 kts 270°
2026-04-22 13:49 38.83645 -11.75862 35999 ft 414 kts 270°
2026-04-22 13:50 38.84121 -11.83213 36000 ft 414 kts 270°
2026-04-22 13:50 38.84591 -11.90568 35997 ft 414 kts 270°
2026-04-22 13:51 38.85050 -11.97919 35997 ft 414 kts 270°
2026-04-22 13:51 38.85508 -12.05277 36007 ft 414 kts 270°
2026-04-22 13:52 38.85970 -12.12627 35999 ft 414 kts 270°
2026-04-22 13:52 38.86416 -12.19986 35992 ft 413 kts 269°
2026-04-22 13:53 38.86855 -12.27339 35985 ft 413 kts 269°
2026-04-22 13:53 38.87299 -12.34739 35976 ft 413 kts 269°
2026-04-22 13:54 38.87734 -12.42046 35989 ft 413 kts 269°
2026-04-22 13:54 38.88164 -12.49442 35975 ft 413 kts 269°
2026-04-22 13:55 38.88585 -12.56793 35980 ft 413 kts 269°
2026-04-22 13:55 38.89000 -12.64138 35969 ft 413 kts 269°
2026-04-22 13:56 38.89414 -12.71487 35967 ft 413 kts 269°
2026-04-22 13:56 38.89827 -12.78837 35977 ft 413 kts 269°
2026-04-22 13:57 38.90237 -12.86196 35963 ft 413 kts 269°
2026-04-22 13:57 38.90638 -12.93556 35949 ft 413 kts 268°
2026-04-22 13:58 38.91028 -13.00907 35944 ft 413 kts 268°
2026-04-22 13:58 38.91354 -13.07024 35940 ft 413 kts 268°
2026-04-22 13:59 38.91747 -13.14432 35963 ft 413 kts 268°
2026-04-22 13:59 38.92136 -13.21795 35950 ft 413 kts 268°
2026-04-22 14:00 38.92518 -13.29150 35939 ft 413 kts 268°
2026-04-22 14:00 38.92888 -13.36508 35931 ft 413 kts 268°
2026-04-22 14:01 38.93257 -13.43865 35925 ft 413 kts 268°
2026-04-22 14:01 38.93626 -13.51222 35933 ft 413 kts 268°
2026-04-22 14:02 38.93987 -13.58580 35932 ft 413 kts 268°
2026-04-22 14:02 38.94342 -13.65944 35915 ft 413 kts 268°
2026-04-22 14:03 38.94695 -13.73307 35912 ft 413 kts 268°
2026-04-22 14:03 38.95041 -13.80671 35901 ft 413 kts 268°
2026-04-22 14:04 38.95380 -13.88034 35942 ft 413 kts 268°
2026-04-22 14:04 38.95716 -13.95397 35921 ft 413 kts 268°
2026-04-22 14:05 38.96049 -14.02762 35925 ft 413 kts 267°
2026-04-22 14:06 38.96540 -14.13807 35901 ft 413 kts 267°
2026-04-22 14:06 38.96861 -14.21178 35896 ft 413 kts 267°
2026-04-22 14:07 38.97180 -14.28597 35903 ft 413 kts 267°
2026-04-22 14:07 38.97490 -14.35965 35894 ft 413 kts 267°
2026-04-22 14:08 38.97797 -14.43334 35890 ft 413 kts 267°
2026-04-22 14:08 38.98101 -14.50699 35875 ft 412 kts 267°
2026-04-22 14:09 38.98400 -14.58059 35903 ft 412 kts 266°
2026-04-22 14:09 38.98694 -14.65422 35885 ft 413 kts 266°
2026-04-22 14:10 38.98980 -14.72792 35876 ft 413 kts 266°
2026-04-22 14:10 38.99261 -14.80167 35864 ft 413 kts 266°
2026-04-22 14:11 38.99543 -14.87543 35864 ft 413 kts 266°
2026-04-22 14:11 38.99816 -14.94919 35881 ft 413 kts 266°
2026-04-22 14:12 39.00071 -15.02295 35869 ft 413 kts 265°
2026-04-22 14:12 39.00237 -15.09654 35862 ft 412 kts 265°
2026-04-22 14:13 39.00360 -15.17013 35859 ft 411 kts 265°
2026-04-22 14:13 39.00488 -15.24359 35849 ft 412 kts 265°
2026-04-22 14:14 39.00629 -15.31719 35846 ft 412 kts 265°
2026-04-22 14:14 39.00770 -15.39129 35852 ft 412 kts 265°
2026-04-22 14:15 39.00904 -15.46492 35850 ft 412 kts 265°
2026-04-22 14:15 39.01028 -15.53856 35835 ft 412 kts 265°
2026-04-22 14:16 39.01145 -15.61226 35827 ft 412 kts 265°
2026-04-22 14:16 39.01267 -15.68590 35837 ft 412 kts 264°
2026-04-22 14:17 39.01378 -15.75952 35832 ft 412 kts 264°
2026-04-22 14:17 39.01486 -15.83306 35816 ft 411 kts 264°
2026-04-22 14:18 39.01588 -15.90656 35814 ft 411 kts 264°
2026-04-22 14:18 39.01687 -15.97999 35793 ft 411 kts 264°
2026-04-22 14:19 39.01775 -16.05340 35821 ft 410 kts 264°
2026-04-22 14:19 39.01857 -16.12672 35799 ft 410 kts 264°
2026-04-22 14:20 39.01990 -16.23671 35778 ft 410 kts 264°
2026-04-22 14:20 39.02065 -16.31010 35774 ft 410 kts 264°
2026-04-22 14:21 39.02169 -16.42064 35792 ft 411 kts 264°
2026-04-22 14:22 39.02274 -16.53068 35766 ft 410 kts 263°
2026-04-22 14:23 39.02356 -16.64065 35752 ft 410 kts 263°
2026-04-22 14:23 39.02413 -16.71397 35788 ft 410 kts 263°
2026-04-22 14:24 39.02459 -16.78719 35760 ft 410 kts 263°
2026-04-22 14:24 39.02504 -16.86044 35771 ft 410 kts 263°
2026-04-22 14:25 39.02538 -16.93369 35753 ft 410 kts 263°
2026-04-22 14:25 39.02565 -17.00697 35743 ft 409 kts 263°
2026-04-22 14:26 39.02585 -17.08014 35754 ft 409 kts 262°
2026-04-22 14:26 39.02608 -17.15378 35737 ft 409 kts 263°
2026-04-22 14:27 39.02635 -17.22682 35723 ft 409 kts 262°
2026-04-22 14:27 39.02656 -17.29989 35719 ft 408 kts 262°
2026-04-22 14:28 39.02661 -17.37291 35710 ft 408 kts 262°
2026-04-22 14:28 39.02663 -17.44587 35713 ft 407 kts 262°
2026-04-22 14:29 39.02674 -17.51865 35696 ft 407 kts 262°
2026-04-22 14:29 39.02670 -17.59133 35692 ft 407 kts 262°
2026-04-22 14:30 39.02658 -17.66406 35683 ft 407 kts 262°
2026-04-22 14:30 39.02645 -17.73686 35680 ft 407 kts 262°
2026-04-22 14:31 39.02638 -17.79783 35703 ft 407 kts 262°
2026-04-22 14:31 39.02620 -17.87054 35693 ft 406 kts 261°
2026-04-22 14:32 39.02585 -17.94314 35678 ft 406 kts 261°
2026-04-22 14:32 39.02554 -18.01573 35675 ft 406 kts 261°
2026-04-22 14:33 39.02525 -18.08827 35662 ft 405 kts 261°
2026-04-22 14:33 39.02488 -18.16069 35665 ft 405 kts 261°
2026-04-22 14:34 39.02450 -18.23309 35661 ft 405 kts 261°
2026-04-22 14:34 39.02394 -18.30548 35643 ft 405 kts 261°
2026-04-22 14:35 39.02336 -18.37801 35634 ft 406 kts 261°
2026-04-22 14:35 39.02280 -18.45060 35668 ft 406 kts 261°
2026-04-22 14:36 39.02222 -18.52320 35650 ft 406 kts 261°
2026-04-22 14:36 39.02157 -18.59591 35646 ft 407 kts 261°
2026-04-22 14:37 39.02088 -18.66871 35652 ft 407 kts 261°
2026-04-22 14:37 39.02009 -18.74148 35633 ft 407 kts 261°
2026-04-22 14:38 39.01927 -18.81425 35634 ft 407 kts 261°
2026-04-22 14:38 39.01846 -18.88702 35629 ft 407 kts 261°
2026-04-22 14:39 39.01760 -18.96023 35623 ft 407 kts 260°
2026-04-22 14:39 39.01657 -19.03295 35621 ft 407 kts 260°
2026-04-22 14:40 39.01517 -19.14217 35645 ft 408 kts 261°
2026-04-22 14:40 39.01421 -19.21512 35633 ft 407 kts 261°
2026-04-22 14:41 39.01302 -19.28786 35619 ft 407 kts 261°
2026-04-22 14:41 39.01190 -19.36068 35609 ft 407 kts 261°
2026-04-22 14:42 39.01080 -19.43342 35606 ft 407 kts 261°
2026-04-22 14:42 39.00957 -19.50615 35626 ft 407 kts 261°
2026-04-22 14:43 39.00830 -19.57887 35610 ft 407 kts 261°
2026-04-22 14:43 39.00702 -19.65161 35603 ft 407 kts 261°
2026-04-22 14:44 39.00563 -19.72441 35594 ft 407 kts 261°
2026-04-22 14:44 39.00417 -19.79711 35593 ft 407 kts 261°
2026-04-22 14:45 39.00274 -19.86992 35618 ft 407 kts 261°
2026-04-22 14:45 39.00123 -19.94269 35599 ft 407 kts 261°
2026-04-22 14:46 38.99974 -20.01604 35592 ft 408 kts 261°
2026-04-22 14:46 39.00037 -20.08933 35588 ft 411 kts 263°
2026-04-22 14:47 39.00216 -20.16271 35612 ft 411 kts 264°
2026-04-22 14:47 39.00362 -20.23616 35590 ft 411 kts 263°
2026-04-22 14:48 39.00458 -20.30960 35575 ft 411 kts 263°
2026-04-22 14:48 39.00541 -20.38308 35578 ft 411 kts 263°
2026-04-22 14:49 39.00635 -20.45667 35577 ft 411 kts 263°
2026-04-22 14:49 39.00719 -20.53023 35586 ft 412 kts 264°
2026-04-22 14:50 39.00791 -20.60388 35572 ft 412 kts 264°
2026-04-22 14:50 39.00866 -20.67769 35572 ft 413 kts 264°
2026-04-22 14:51 39.00943 -20.75157 35571 ft 414 kts 264°
2026-04-22 14:51 39.01016 -20.82558 35604 ft 414 kts 265°
2026-04-22 14:52 39.01077 -20.90025 35588 ft 415 kts 265°
2026-04-22 14:52 39.01132 -20.97458 35572 ft 416 kts 265°
2026-04-22 14:53 39.01183 -21.04913 35567 ft 417 kts 265°
2026-04-22 14:53 39.01231 -21.12376 35568 ft 418 kts 265°
2026-04-22 14:54 39.01277 -21.19848 35593 ft 418 kts 265°
2026-04-22 14:54 39.01315 -21.27322 35584 ft 418 kts 265°
2026-04-22 14:55 39.01348 -21.34809 35578 ft 419 kts 265°
2026-04-22 14:55 39.01372 -21.42293 35575 ft 419 kts 265°
2026-04-22 14:56 39.01395 -21.49829 35585 ft 419 kts 266°
2026-04-22 14:56 39.01419 -21.57323 35580 ft 419 kts 266°
2026-04-22 14:57 39.01432 -21.64826 35579 ft 420 kts 266°
2026-04-22 14:57 39.01447 -21.72327 35572 ft 420 kts 266°
2026-04-22 14:58 39.01460 -21.79834 35572 ft 420 kts 266°
2026-04-22 14:58 39.01452 -21.87348 35576 ft 421 kts 266°
2026-04-22 14:59 39.01438 -21.94875 35580 ft 422 kts 266°
2026-04-22 14:59 39.01431 -22.02420 35572 ft 423 kts 266°
2026-04-22 15:00 39.01421 -22.09983 35574 ft 423 kts 266°
2026-04-22 15:00 39.01405 -22.17549 35570 ft 423 kts 266°
2026-04-22 15:01 39.01383 -22.23892 35572 ft 423 kts 266°
2026-04-22 15:01 39.01349 -22.31458 35573 ft 424 kts 266°
2026-04-22 15:02 39.01311 -22.39044 35577 ft 424 kts 266°
2026-04-22 15:02 39.01275 -22.46624 35597 ft 424 kts 267°
2026-04-22 15:03 39.01230 -22.54208 35589 ft 424 kts 267°
2026-04-22 15:03 39.01182 -22.61790 35582 ft 424 kts 267°
2026-04-22 15:04 39.01133 -22.69382 35583 ft 424 kts 267°
2026-04-22 15:04 39.01081 -22.76969 35584 ft 425 kts 267°
2026-04-22 15:05 39.01019 -22.84609 35592 ft 424 kts 268°
2026-04-22 15:05 39.00952 -22.92185 35594 ft 423 kts 268°
2026-04-22 15:06 39.00876 -22.99747 35580 ft 423 kts 268°
2026-04-22 15:06 39.00799 -23.07301 35584 ft 422 kts 267°
2026-04-22 15:07 39.00718 -23.14851 35574 ft 422 kts 268°
2026-04-22 15:07 39.00628 -23.22391 35578 ft 421 kts 268°
2026-04-22 15:08 39.00539 -23.29919 35572 ft 421 kts 268°
2026-04-22 15:08 39.00445 -23.37447 35574 ft 421 kts 268°
2026-04-22 15:09 39.00342 -23.44967 35564 ft 421 kts 269°
2026-04-22 15:09 39.00232 -23.52478 35567 ft 420 kts 268°
2026-04-22 15:10 39.00120 -23.59977 35569 ft 419 kts 269°
2026-04-22 15:10 39.00002 -23.67460 35560 ft 419 kts 268°
2026-04-22 15:11 38.99741 -23.74928 35558 ft 418 kts 266°
2026-04-22 15:11 38.99335 -23.82383 35556 ft 418 kts 266°
2026-04-22 15:12 38.98918 -23.89822 35550 ft 417 kts 266°
2026-04-22 15:12 38.98538 -23.97264 35546 ft 417 kts 266°
2026-04-22 15:13 38.98163 -24.04709 35552 ft 417 kts 266°
2026-04-22 15:13 38.97779 -24.12187 35550 ft 416 kts 267°
2026-04-22 15:14 38.97393 -24.19593 35570 ft 415 kts 266°
2026-04-22 15:14 38.96997 -24.26984 35557 ft 414 kts 266°
2026-04-22 15:15 38.96605 -24.34370 35550 ft 414 kts 267°
2026-04-22 15:15 38.96197 -24.41747 35535 ft 414 kts 267°
2026-04-22 15:16 38.95794 -24.49115 35543 ft 413 kts 267°
2026-04-22 15:16 38.95392 -24.56469 35550 ft 412 kts 267°
2026-04-22 15:17 38.94979 -24.63815 35545 ft 412 kts 267°
2026-04-22 15:17 38.94562 -24.71152 35547 ft 411 kts 267°
2026-04-22 15:18 38.94146 -24.78490 35550 ft 412 kts 266°
2026-04-22 15:18 38.93717 -24.85823 35554 ft 411 kts 267°
2026-04-22 15:19 38.93290 -24.93149 35545 ft 412 kts 267°
2026-04-22 15:19 38.92855 -25.00479 35549 ft 412 kts 266°
2026-04-22 15:20 38.92411 -25.07864 35540 ft 412 kts 267°
2026-04-22 15:20 38.91965 -25.15204 35084 ft 414 kts 267°
2026-04-22 15:21 38.91737 -25.18924 34109 ft 420 kts 267°
2026-04-22 15:21 38.91508 -25.22616 33287 ft 411 kts 267°
2026-04-22 15:21 38.91280 -25.26285 32370 ft 413 kts 268°
2026-04-22 15:21 38.91056 -25.29966 31454 ft 415 kts 268°
2026-04-22 15:22 38.90829 -25.33668 30571 ft 417 kts 267°
2026-04-22 15:22 38.90596 -25.37381 29683 ft 418 kts 267°
2026-04-22 15:22 38.90360 -25.41114 28704 ft 420 kts 267°
2026-04-22 15:22 38.90123 -25.44797 28241 ft 409 kts 268°
2026-04-22 15:23 38.89888 -25.48413 27635 ft 404 kts 268°
2026-04-22 15:23 38.89657 -25.51976 27031 ft 398 kts 267°
2026-04-22 15:23 38.89430 -25.55493 26453 ft 392 kts 268°
2026-04-22 15:23 38.89206 -25.58958 25882 ft 387 kts 268°
2026-04-22 15:24 38.88986 -25.62376 25318 ft 382 kts 268°
2026-04-22 15:24 38.88770 -25.65757 24761 ft 377 kts 268°
2026-04-22 15:24 38.88556 -25.69087 24229 ft 373 kts 268°
2026-04-22 15:24 38.88340 -25.72385 23696 ft 369 kts 268°
2026-04-22 15:25 38.88126 -25.75644 23171 ft 365 kts 268°
2026-04-22 15:25 38.87912 -25.78871 22615 ft 360 kts 268°
2026-04-22 15:25 38.87699 -25.82053 22125 ft 355 kts 268°
2026-04-22 15:25 38.87487 -25.85182 21675 ft 349 kts 268°
2026-04-22 15:26 38.87274 -25.88302 21219 ft 344 kts 268°
2026-04-22 15:26 38.87069 -25.91295 20805 ft 339 kts 268°
2026-04-22 15:26 38.86867 -25.94327 20384 ft 335 kts 268°
2026-04-22 15:26 38.86671 -25.97290 19966 ft 333 kts 268°
2026-04-22 15:27 38.86472 -26.00242 19570 ft 330 kts 268°
2026-04-22 15:27 38.86271 -26.03167 19169 ft 328 kts 268°
2026-04-22 15:27 38.86068 -26.06076 18763 ft 327 kts 267°
2026-04-22 15:27 38.85865 -26.08968 18361 ft 325 kts 268°
2026-04-22 15:28 38.85617 -26.11844 17911 ft 325 kts 263°
2026-04-22 15:28 38.85011 -26.14642 17409 ft 327 kts 252°
2026-04-22 15:28 38.84000 -26.17266 16928 ft 329 kts 244°
2026-04-22 15:28 38.82845 -26.19789 16441 ft 327 kts 244°
2026-04-22 15:29 38.81697 -26.22305 15966 ft 326 kts 244°
2026-04-22 15:29 38.80558 -26.24804 15478 ft 324 kts 244°
2026-04-22 15:29 38.79422 -26.27297 14983 ft 323 kts 244°
2026-04-22 15:30 38.77542 -26.31425 14170 ft 322 kts 244°
2026-04-22 15:30 38.76033 -26.34736 13514 ft 321 kts 244°
2026-04-22 15:30 38.74908 -26.37201 12958 ft 320 kts 244°
2026-04-22 15:30 38.73786 -26.39656 12458 ft 318 kts 244°
2026-04-22 15:31 38.72672 -26.42089 11946 ft 316 kts 244°
2026-04-22 15:31 38.71564 -26.44508 11429 ft 314 kts 244°
2026-04-22 15:31 38.70464 -26.46910 10907 ft 312 kts 244°
2026-04-22 15:31 38.69366 -26.49305 10384 ft 311 kts 244°
2026-04-22 15:32 38.68282 -26.51660 10146 ft 301 kts 244°
2026-04-22 15:32 38.67237 -26.53916 10017 ft 288 kts 244°
2026-04-22 15:32 38.66237 -26.56076 9898 ft 276 kts 245°
2026-04-22 15:32 38.65278 -26.58157 9743 ft 266 kts 245°
2026-04-22 15:33 38.64337 -26.60205 9520 ft 260 kts 245°
2026-04-22 15:33 38.63438 -26.62167 9393 ft 256 kts 245°
2026-04-22 15:33 38.62553 -26.64091 9257 ft 246 kts 245°
2026-04-22 15:33 38.61969 -26.65356 9080 ft 243 kts 245°
2026-04-22 15:34 38.61119 -26.67203 8763 ft 240 kts 245°
2026-04-22 15:34 38.60274 -26.69033 8426 ft 238 kts 245°
2026-04-22 15:34 38.59438 -26.70844 8098 ft 235 kts 245°
2026-04-22 15:34 38.58612 -26.72633 7755 ft 232 kts 245°
2026-04-22 15:35 38.57811 -26.74364 7442 ft 220 kts 245°
2026-04-22 15:35 38.57049 -26.76008 7156 ft 212 kts 246°
2026-04-22 15:35 38.56300 -26.77627 6847 ft 211 kts 246°
2026-04-22 15:35 38.55559 -26.79229 6546 ft 209 kts 246°
2026-04-22 15:36 38.54822 -26.80824 6270 ft 208 kts 246°
2026-04-22 15:36 38.54187 -26.82454 5974 ft 201 kts 261°
2026-04-22 15:36 38.54157 -26.84206 5689 ft 194 kts 285°
2026-04-22 15:36 38.54753 -26.85741 5389 ft 196 kts 308°
2026-04-22 15:37 38.55733 -26.86954 5118 ft 197 kts 312°
2026-04-22 15:37 38.56734 -26.88157 4822 ft 197 kts 313°
2026-04-22 15:37 38.57677 -26.89363 4735 ft 185 kts 307°
2026-04-22 15:37 38.58534 -26.90541 4647 ft 178 kts 312°
2026-04-22 15:38 38.59451 -26.91597 4431 ft 177 kts 315°
2026-04-22 15:38 38.61349 -26.93614 3960 ft 178 kts 316°
2026-04-22 15:38 38.62310 -26.94617 3702 ft 179 kts 316°
2026-04-22 15:39 38.63281 -26.95627 3445 ft 181 kts 316°
2026-04-22 15:39 38.64262 -26.96648 3199 ft 180 kts 316°
2026-04-22 15:39 38.65204 -26.97626 2937 ft 168 kts 316°
2026-04-22 15:39 38.66082 -26.98539 2704 ft 158 kts 315°
2026-04-22 15:40 38.66920 -26.99412 2487 ft 154 kts 315°
2026-04-22 15:40 38.67736 -27.00261 2234 ft 146 kts 315°
2026-04-22 15:40 38.68480 -27.01035 2041 ft 132 kts 315°
2026-04-22 15:40 38.69170 -27.01755 1849 ft 126 kts 314°
2026-04-22 15:41 38.69848 -27.02463 1666 ft 125 kts 314°
2026-04-22 15:41 38.70520 -27.03165 1485 ft 125 kts 314°
2026-04-22 15:41 38.71195 -27.03869 1304 ft 124 kts 315°
2026-04-22 15:41 38.71863 -27.04566 1144 ft 124 kts 313°
2026-04-22 15:42 38.72527 -27.05259 953 ft 124 kts 315°
2026-04-22 15:42 38.73201 -27.05963 777 ft 125 kts 315°
2026-04-22 15:42 38.73871 -27.06664 607 ft 124 kts 316°
2026-04-22 15:42 38.74536 -27.07358 444 ft 124 kts 316°
2026-04-22 15:43 38.75224 -27.08071 268 ft 129 kts 314°
2026-04-22 15:43 38.75905 -27.08763 194 ft 116 kts 306°
2026-04-22 15:43 38.76358 -27.09293 178 ft 59 kts 320°
2026-04-22 15:43 38.76563 -27.09498 180 ft 26 kts 321°
2026-04-22 15:44 38.76674 -27.09614 181 ft 17 kts 321°
2026-04-22 15:44 38.76734 -27.09671 180 ft 8 kts
2026-04-22 15:44 38.76724 -27.09621 180 ft 8 kts 143°
2026-04-22 15:44 38.76682 -27.09582 180 ft 7 kts 145°
2026-04-22 15:45 38.76640 -27.09545 181 ft 9 kts 145°
2026-04-22 15:45 38.76583 -27.09492 180 ft 12 kts 142°
2026-04-22 15:45 38.76493 -27.09398 179 ft 21 kts 140°
2026-04-22 15:45 38.76360 -27.09260 178 ft 28 kts 141°
2026-04-22 15:46 38.76189 -27.09084 180 ft 34 kts 141°
2026-04-22 15:46 38.76029 -27.08918 181 ft 18 kts 141°
2026-04-22 15:46 38.75917 -27.08889 180 ft 17 kts 185°
2026-04-22 15:46 38.75802 -27.08899 179 ft 16 kts 182°
2026-04-22 15:47 38.75695 -27.08894 178 ft 15 kts 156°
2026-04-22 15:47 38.75619 -27.08818 178 ft 13 kts 142°
2026-04-22 15:47 38.75562 -27.08758 178 ft 7 kts 137°
2026-04-22 15:47 38.75550 -27.08701 178 ft 0 kts 93°
2026-04-22 15:48 38.75550 -27.08700 178 ft 0 kts 93°
2026-04-22 15:48 38.75548 -27.08693 178 ft 2 kts 112°
2026-04-22 15:48 38.75535 -27.08685 178 ft 3 kts 166°
2026-04-22 15:48 38.75514 -27.08686 178 ft 2 kts 193°
2026-04-22 15:49 38.75504 -27.08696 178 ft 1 kts 219°
2026-04-22 15:49 38.75498 -27.08703 178 ft 3 kts 225°
2026-04-22 15:49 38.75470 -27.08745 178 ft 3 kts 232°
2026-04-22 15:49 38.75468 -27.08749 178 ft 0 kts 231°